Location: Treviso
(45.6669°N, 12.2430°E)
Time: 01:15:35
(UTC+01:00)

ISS - Pass Details

Date: 12 March 2026
Orbit: 416 x 426 km, 51.6° (Epoch: 9 March)

Event Time Altitude Azimuth Distance (km) Brightness Sun altitude
Rises 18:54:38 0° 208° (SSW) 2,369 0.4 -8.1°
Reaches altitude 10° 18:56:58 10° 193° (SSW) 1,507 -0.8 -8.5°
Maximum altitude 18:59:45 24° 138° (SE) 928 -2.4 -9.0°
Enters shadow 19:01:55 14° 90° (E) 1,312 -1.9 -9.4°
